User: anonymous   Login
Location: Brunembert
(50.7122°N, 1.8935°E)
Time: 20:16:35
(UTC+00:00)
Language:

Cosmos 1766 Rocket - Orbit

View from above orbital plane
View from above orbital plane
View from above satellite
View from above satellite

Ground track
Ground track

The orbit data is extracted from the following two-line orbital elements,

1 16882U 86055B   21171.47691034  .00000075  00000-0  63097-5 0  9997
2 16882  82.5212 302.5975 0018310 259.9629 212.1993 14.83273041863808
Epoch (UTC): 20 June 2021 11:26:45
Eccentricity: 0.0018310
inclination: 82.5212°
perigee height: 606 km
apogee height: 632 km
right ascension of ascending node: 302.5975°
argument of perigee: 259.9629°
revolutions per day: 14.83273041
mean anomaly at epoch: 212.1993°
orbit number at epoch: 86380

The dashed part of the orbit path shows where the satellite is in the earth's shadow,  

DLR